KQ4Q-4 Weather Reports


time (UTC)temp
F
wind
direction
speed
knots
gust
knots
rain 1hr
in
rain 24hr
in
rain mn
in
humidity
%
barometer
mb
20260510174606 72 272 5.2 7.0 0.00 0.00 0.00 48 1017.2
20260510174106 72 245 2.6 6.1 0.00 0.00 0.00 52 1017.2
20260510173607 72 332 4.3 7.8 0.00 0.00 0.00 49 1017.3
20260510173107 71 311 7.8 12.2 0.00 0.00 0.00 49 1017.3
20260510172607 71 304 3.5 6.1 0.00 0.00 0.00 51 1017.5
20260510172107 71 248 4.3 7.8 0.00 0.00 0.00 51 1017.6
20260510171607 71 315 5.2 7.8 0.00 0.00 0.00 51 1017.6
20260510171106 71 337 3.5 5.2 0.00 0.00 0.00 50 1017.6
20260510170607 71 277 4.3 10.4 0.00 0.00 0.00 51 1017.7
20260510170106 71 293 5.2 7.0 0.00 0.00 0.00 52 1017.8
20260510165607 71 290 2.6 6.1 0.00 0.00 0.00 54 1017.6
20260510165106 71 217 4.3 7.8 0.00 0.00 0.00 55 1017.7
20260510164606 70 324 3.5 6.1 0.00 0.00 0.00 54 1017.7
20260510164109 70 299 5.2 9.6 0.00 0.00 0.00 53 1017.8
20260510163606 70 313 4.3 7.0 0.00 0.00 0.00 54 1017.9
20260510163106 70 297 5.2 7.8 0.00 0.00 0.00 53 1017.7
20260510162606 70 252 3.5 6.1 0.00 0.00 0.00 53 1017.7
20260510162107 69 302 2.6 6.1 0.00 0.00 0.00 53 1017.8
20260510161607 69 270 3.5 7.8 0.00 0.00 0.00 55 1017.8
20260510161107 70 289 3.5 4.3 0.00 0.00 0.00 53 1017.9
20260510160606 70 285 3.5 6.1 0.00 0.00 0.00 54 1017.7
20260510160107 70 281 2.6 6.1 0.00 0.00 0.00 53 1017.7
20260510155606 70 358 1.7 3.5 0.00 0.00 0.00 53 1017.6
20260510155106 69 301 3.5 6.1 0.00 0.00 0.00 52 1017.7
20260510154606 69 314 1.7 3.5 0.00 0.00 0.00 55 1017.7
20260510154106 69 289 5.2 9.6 0.00 0.00 0.00 53 1017.9
20260510153606 70 270 7.0 12.2 0.00 0.00 0.00 52 1017.8
20260510153107 70 273 3.5 5.2 0.00 0.00 0.00 53 1017.8
20260510152607 69 326 2.6 6.1 0.00 0.00 0.00 55 1017.8
20260510152107 69 326 3.5 5.2 0.00 0.00 0.00 53 1017.8
20260510151608 69 315 2.6 5.2 0.00 0.00 0.00 54 1017.8
20260510151106 68 314 5.2 8.7 0.00 0.00 0.00 54 1017.7
20260510150608 68 305 3.5 6.1 0.00 0.00 0.00 55 1017.8
20260510150106 68 257 3.5 5.2 0.00 0.00 0.00 56 1017.8
20260510145606 68 280 5.2 8.7 0.00 0.00 0.00 54 1017.8
20260510145106 67 341 5.2 9.6 0.00 0.00 0.00 54 1017.7
20260510144607 67 239 2.6 5.2 0.00 0.00 0.00 56 1017.7
20260510144106 67 276 4.3 8.7 0.00 0.00 0.00 54 1017.8
20260510143606 67 269 5.2 7.8 0.00 0.00 0.00 55 1017.8
20260510143106 67 277 5.2 8.7 0.00 0.00 0.00 55 1017.8
20260510142607 67 256 3.5 5.2 0.00 0.00 0.00 56 1017.9
20260510142106 67 284 3.5 7.0 0.00 0.00 0.00 57 1017.7
20260510141607 66 300 5.2 7.8 0.00 0.00 0.00 57 1017.7
20260510141106 66 278 4.3 7.0 0.00 0.00 0.00 57 1017.7
20260510140606 66 269 4.3 8.7 0.00 0.00 0.00 57 1017.6
20260510140106 66 294 4.3 6.1 0.00 0.00 0.00 60 1017.6
20260510135607 65 270 3.5 7.8 0.00 0.00 0.00 59 1017.5
20260510135106 65 321 3.5 5.2 0.00 0.00 0.00 61 1017.5
20260510134607 64 280 4.3 5.2 0.00 0.00 0.00 62 1017.3
20260510134106 63 304 4.3 7.8 0.00 0.00 0.00 63 1017.3
20260510133606 61 293 4.3 5.2 0.00 0.00 0.00 69 1017.2
20260510132620 59 273 1.7 2.6 0.00 0.00 0.00 77 1017.3
20260510132106 58 189 0.9 0.9 0.00 0.00 0.00 85 1017.3
20260510131607 56 63 0.0 0.9 0.00 0.00 0.00 89 1017.4
20260510130634 53 82 0.0 0.9 0.00 0.00 0.00 100 1017.4
20260510130106 53 7 0.0 0.0 0.00 0.00 0.00 100 1017.3
20260510125607 52 3 0.9 1.7 0.00 0.00 0.00 100 1017.3
20260510125107 51 329 0.0 0.0 0.00 0.00 0.00 100 1017.3
20260510124607 50 203 0.0 0.0 0.00 0.00 0.00 100 1017.3
20260510124106 49 351 0.0 0.0 0.00 0.00 0.00 100 1017.4
20260510123606 48 346 0.9 0.9 0.00 0.00 0.00 99 1017.3
20260510123107 47 0 0.0 0.0 0.00 0.00 0.00 99 1017.3
20260510122606 46 356 0.0 0.9 0.00 0.00 0.00 99 1017.2
20260510122106 46 354 0.0 0.9 0.00 0.00 0.00 99 1017.1
20260510121607 45 269 0.0 0.0 0.00 0.00 0.00 99 1017.1
20260510121106 44 316 0.0 0.9 0.00 0.00 0.00 99 1017.0
20260510120606 43 316 0.9 0.9 0.00 0.00 0.00 99 1017.0
20260510120106 42 301 0.0 0.0 0.00 0.00 0.00 99 1016.9
20260510115607 42 234 0.0 0.0 0.00 0.00 0.00 99 1016.8
20260510115106 41 274 0.0 0.0 0.00 0.00 0.00 99 1016.6
20260510114606 41 333 0.0 0.9 0.00 0.00 0.00 99 1016.6
20260510114107 40 323 0.0 0.0 0.00 0.00 0.00 99 1016.6
20260510113606 40 305 0.0 0.0 0.00 0.00 0.00 99 1016.5
20260510113107 40 0 0.0 0.0 0.00 0.00 0.00 99 1016.6
20260510112607 39 304 0.0 0.9 0.00 0.00 0.00 99 1016.6
20260510112107 39 327 0.0 0.0 0.00 0.00 0.00 99 1016.6
20260510111606 39 5 0.0 0.0 0.00 0.00 0.00 99 1016.6
20260510111106 39 0 0.0 0.0 0.00 0.00 0.00 99 1016.6
20260510110607 39 0 0.0 0.0 0.00 0.00 0.00 99 1016.5
20260510110106 39 0 0.0 0.0 0.00 0.00 0.00 99 1016.3
20260510105606 39 0 0.0 0.0 0.00 0.00 0.00 99 1016.2
20260510105107 38 340 0.0 0.0 0.00 0.00 0.00 99 1016.1
20260510104606 38 0 0.0 0.0 0.00 0.00 0.00 99 1016.0
20260510104107 38 0 0.0 0.0 0.00 0.00 0.00 99 1016.0
20260510103607 38 0 0.0 0.0 0.00 0.00 0.00 99 1016.0
20260510103107 39 263 0.0 0.0 0.00 0.00 0.00 99 1015.9
20260510102606 39 0 0.0 0.0 0.00 0.00 0.00 99 1015.9
20260510102106 39 270 0.0 0.0 0.00 0.00 0.00 99 1015.7
20260510101607 39 259 0.0 0.9 0.00 0.00 0.00 99 1015.7
20260510101106 39 0 0.0 0.0 0.00 0.00 0.00 99 1015.6
20260510100607 39 297 0.0 0.9 0.00 0.00 0.00 99 1015.7
20260510100106 39 184 0.0 0.0 0.00 0.00 0.00 99 1015.7
20260510095607 39 29 0.0 0.9 0.00 0.00 0.00 99 1015.6
20260510095106 39 0 0.0 0.0 0.00 0.00 0.00 99 1015.6
20260510094606 39 314 0.0 0.0 0.00 0.00 0.00 99 1015.6
20260510094106 40 332 0.9 0.9 0.00 0.00 0.00 99 1015.6
20260510093606 40 43 0.0 0.0 0.00 0.00 0.00 99 1015.6
20260510093107 40 310 0.9 0.9 0.00 0.00 0.00 99 1015.6
20260510092606 40 0 0.0 0.0 0.00 0.00 0.00 99 1015.6
20260510092106 40 0 0.0 0.0 0.00 0.00 0.00 99 1015.6
20260510091606 40 0 0.0 0.0 0.00 0.00 0.00 99 1015.5
20260510091108 40 356 0.0 0.0 0.00 0.00 0.00 99 1015.5
20260510090607 40 33 0.0 0.0 0.00 0.00 0.00 99 1015.4
20260510090106 40 0 0.0 0.0 0.00 0.00 0.00 99 1015.2
20260510085607 40 292 0.0 0.9 0.00 0.00 0.00 99 1015.2
20260510085106 40 0 0.0 0.0 0.00 0.00 0.00 99 1015.1
20260510084607 40 0 0.0 0.0 0.00 0.00 0.00 99 1015.1
20260510084106 40 0 0.0 0.0 0.00 0.00 0.00 99 1015.1
20260510083607 40 31 0.0 0.0 0.00 0.00 0.00 99 1015.0
20260510083106 41 0 0.0 0.0 0.00 0.00 0.00 99 1015.0
20260510082606 41 0 0.0 0.0 0.00 0.00 0.00 99 1014.9
20260510082106 41 0 0.0 0.0 0.00 0.00 0.00 99 1014.9
20260510081606 41 245 0.0 0.9 0.00 0.00 0.00 99 1014.9
20260510081107 40 247 0.0 0.9 0.00 0.00 0.00 100 1014.8
20260510080606 41 24 0.0 0.0 0.00 0.00 0.00 100 1014.9
20260510080106 41 0 0.0 0.0 0.00 0.00 0.00 99 1014.9
20260510075606 41 0 0.0 0.0 0.00 0.00 0.00 99 1014.8
20260510075106 41 346 0.0 0.9 0.00 0.00 0.00 99 1014.8
20260510074606 41 223 0.0 0.0 0.00 0.00 0.00 100 1014.8
20260510074106 41 297 0.0 0.0 0.00 0.00 0.00 100 1014.8
20260510073606 41 0 0.0 0.0 0.00 0.00 0.00 100 1014.7
20260510073106 42 0 0.0 0.0 0.00 0.00 0.00 100 1014.7
20260510072606 42 0 0.0 0.0 0.00 0.00 0.00 100 1014.7
20260510072106 42 224 0.9 0.9 0.00 0.00 0.00 100 1014.6
20260510071606 42 282 0.0 0.9 0.00 0.00 0.00 100 1014.6
20260510071107 42 8 0.9 0.9 0.00 0.00 0.00 100 1014.6
20260510070607 42 144 0.0 0.9 0.00 0.00 0.00 99 1014.6
20260510070106 42 114 0.0 0.0 0.00 0.00 0.00 99 1014.6
20260510065607 42 301 0.0 0.9 0.00 0.00 0.00 99 1014.6
20260510065106 42 0 0.0 0.0 0.00 0.00 0.00 99 1014.6
20260510064607 43 198 0.0 0.0 0.00 0.00 0.00 99 1014.6
20260510064106 43 0 0.0 0.0 0.00 0.00 0.00 99 1014.6
20260510063606 43 313 0.0 0.0 0.00 0.00 0.00 99 1014.6
20260510063106 43 228 0.0 0.0 0.00 0.00 0.00 99 1014.6
20260510062606 43 15 0.0 0.9 0.00 0.00 0.00 99 1014.6
20260510062106 43 19 0.9 0.9 0.00 0.00 0.00 99 1014.6
20260510061607 44 241 0.0 0.9 0.00 0.00 0.00 98 1014.6
20260510061107 44 0 0.0 0.0 0.00 0.00 0.00 99 1014.5
20260510060607 44 204 0.9 0.9 0.00 0.00 0.00 99 1014.6
20260510060106 44 300 0.0 0.9 0.00 0.00 0.00 98 1014.7
20260510055606 44 339 0.0 0.9 0.00 0.00 0.00 98 1014.6
20260510055106 44 12 0.9 0.9 0.00 0.00 0.00 98 1014.6
20260510054607 44 230 0.0 0.9 0.00 0.00 0.00 99 1014.6
20260510054106 44 218 0.0 0.9 0.00 0.00 0.00 98 1014.5
20260510053606 44 0 0.0 0.0 0.00 0.00 0.00 98 1014.6
20260510053106 44 295 0.0 0.0 0.00 0.00 0.00 98 1014.6
20260510052606 45 332 0.0 0.9 0.00 0.00 0.00 98 1014.6
20260510052107 45 301 0.0 0.9 0.00 0.00 0.00 98 1014.6
20260510051607 45 316 0.0 0.9 0.00 0.00 0.00 98 1014.6
20260510051106 45 272 0.0 0.0 0.00 0.00 0.00 97 1014.6
20260510050606 46 0 0.0 0.0 0.00 0.00 0.00 97 1014.7
20260510050107 46 34 0.0 0.9 0.00 0.00 0.00 97 1014.6
20260510045607 46 301 0.0 0.0 0.00 0.00 0.00 97 1014.6
20260510045106 46 198 0.0 0.0 0.00 0.00 0.00 98 1014.6
20260510044606 46 0 0.0 0.0 0.00 0.00 0.00 97 1014.6
20260510044106 46 278 0.0 0.9 0.00 0.00 0.00 97 1014.7
20260510043606 46 351 0.0 0.9 0.00 0.00 0.00 97 1014.6
20260510043106 47 15 0.0 0.0 0.00 0.00 0.00 97 1014.6
20260510042606 47 218 0.0 0.9 0.00 0.00 0.00 97 1014.5
20260510042107 47 24 0.0 0.9 0.00 0.00 0.00 97 1014.4
20260510041607 47 286 0.0 0.9 0.00 0.00 0.00 96 1014.5
20260510041106 47 0 0.0 0.0 0.00 0.00 0.00 96 1014.5
20260510040606 47 0 0.0 0.0 0.00 0.00 0.00 96 1014.5
20260510040107 47 342 0.0 0.9 0.00 0.00 0.00 96 1014.6
20260510035607 47 0 0.0 0.0 0.00 0.00 0.00 96 1014.6
20260510035109 47 200 0.0 0.0 0.00 0.00 0.00 95 1014.4
20260510034606 48 290 0.0 0.0 0.00 0.00 0.00 95 1014.4
20260510034108 48 301 0.0 0.0 0.00 0.00 0.00 95 1014.5
20260510033606 48 239 0.0 0.9 0.00 0.00 0.00 95 1014.5
20260510033112 48 237 0.0 0.9 0.00 0.00 0.00 95 1014.4
20260510032606 49 325 0.0 1.7 0.00 0.00 0.00 94 1014.4
20260510032106 49 349 0.0 0.9 0.00 0.00 0.00 94 1014.4
20260510031608 49 0 0.0 0.0 0.00 0.00 0.00 94 1014.4
20260510031106 49 213 0.9 0.9 0.00 0.00 0.00 93 1014.3
20260510030606 49 2 0.0 0.9 0.00 0.00 0.00 93 1014.4
20260510030107 49 0 0.0 0.0 0.00 0.00 0.00 93 1014.4
20260510025606 50 0 0.0 0.0 0.00 0.00 0.00 92 1014.3
20260510025107 50 0 0.0 0.0 0.00 0.00 0.00 91 1014.4
20260510024607 50 270 0.0 0.0 0.00 0.00 0.00 91 1014.4
20260510024106 50 339 0.0 0.0 0.00 0.00 0.00 91 1014.4
20260510023608 50 250 0.0 0.9 0.00 0.00 0.00 92 1014.5
20260510023107 50 241 0.0 0.0 0.00 0.00 0.00 91 1014.5
20260510022607 50 0 0.0 0.0 0.00 0.00 0.00 90 1014.4
20260510022107 51 275 0.0 0.9 0.00 0.00 0.00 89 1014.3
20260510021606 51 333 0.0 0.9 0.00 0.00 0.00 89 1014.2
20260510021106 51 310 0.0 0.0 0.00 0.00 0.00 89 1014.1
20260510020607 51 313 0.0 0.0 0.00 0.00 0.00 89 1014.1
20260510020107 52 303 0.0 0.0 0.00 0.00 0.00 88 1014.1
20260510015606 52 0 0.0 0.0 0.00 0.00 0.00 87 1013.9
20260510015107 52 0 0.0 0.0 0.00 0.00 0.00 86 1013.7
20260510014606 53 302 0.0 0.0 0.00 0.00 0.00 85 1013.7
20260510014106 53 355 0.0 0.9 0.00 0.00 0.00 85 1013.6
20260510013607 53 345 0.0 0.0 0.00 0.00 0.00 83 1013.5
20260510013106 53 312 0.9 0.9 0.00 0.00 0.00 83 1013.4
20260510012606 54 246 0.0 0.9 0.00 0.00 0.00 83 1013.3
20260510012108 54 270 0.0 0.9 0.00 0.00 0.00 81 1013.3
20260510011607 55 250 0.0 0.0 0.00 0.00 0.00 79 1013.2
20260510011106 55 0 0.0 0.0 0.00 0.00 0.00 79 1013.0
20260510010607 56 287 0.0 0.9 0.00 0.00 0.00 78 1012.9
20260510010107 56 0 0.0 0.0 0.00 0.00 0.00 78 1012.8
20260510005606 57 50 0.0 0.0 0.00 0.00 0.00 76 1012.8
20260510005107 57 284 0.0 0.0 0.00 0.00 0.00 74 1012.8
20260510004606 58 0 0.0 0.0 0.00 0.00 0.00 74 1012.6
20260510004106 59 268 0.0 0.9 0.00 0.00 0.00 73 1012.7
20260510003606 59 0 0.0 0.0 0.00 0.00 0.00 71 1012.6
20260510003106 60 235 0.0 0.0 0.00 0.00 0.00 69 1012.6
20260510002606 60 0 0.0 0.0 0.00 0.00 0.00 69 1012.5
20260510002106 61 10 0.0 0.9 0.00 0.00 0.00 67 1012.5
20260510001607 62 339 0.9 0.9 0.00 0.00 0.00 65 1012.5
20260510001108 63 313 0.9 0.9 0.00 0.00 0.00 64 1012.5
20260510000607 63 337 1.7 1.7 0.00 0.00 0.00 62 1012.5
20260510000106 64 317 0.9 1.7 0.00 0.00 0.00 61 1012.3
20260509235606 64 311 0.9 1.7 0.00 0.00 0.00 59 1012.2
20260509235108 65 324 1.7 3.5 0.00 0.00 0.00 58 1012.2
20260509234609 66 294 2.6 3.5 0.00 0.00 0.00 56 1012.1
20260509233618 66 341 1.7 2.6 0.00 0.00 0.00 55 1011.9
20260509233106 66 321 2.6 3.5 0.00 0.00 0.00 55 1011.8
20260509232606 66 319 2.6 3.5 0.00 0.00 0.00 55 1011.8
20260509232106 66 289 2.6 3.5 0.00 0.00 0.00 55 1011.8
20260509231606 66 308 3.5 5.2 0.00 0.00 0.00 54 1011.8
20260509231106 67 332 2.6 6.1 0.00 0.00 0.00 54 1011.7
20260509230607 67 300 3.5 5.2 0.00 0.00 0.00 53 1011.7
20260509230106 67 303 1.7 3.5 0.00 0.00 0.00 53 1011.7
20260509225606 66 338 2.6 4.3 0.00 0.00 0.00 53 1011.7
20260509225107 67 296 5.2 7.0 0.00 0.00 0.00 53 1011.8
20260509224606 67 321 4.3 6.1 0.00 0.00 0.00 53 1011.7
20260509224106 67 322 5.2 6.1 0.00 0.00 0.00 52 1011.7
20260509223607 67 287 3.5 5.2 0.00 0.00 0.00 53 1011.8
20260509223106 68 282 4.3 7.0 0.00 0.00 0.00 52 1011.7
20260509222606 67 308 1.7 4.3 0.00 0.00 0.00 55 1011.8
20260509222108 67 298 2.6 3.5 0.00 0.00 0.00 54 1011.8
20260509221606 66 282 2.6 3.5 0.00 0.00 0.00 55 1011.9
20260509221106 66 334 3.5 5.2 0.00 0.00 0.00 55 1011.8
20260509220606 66 328 2.6 4.3 0.00 0.00 0.00 55 1011.9
20260509220106 66 303 5.2 10.4 0.00 0.00 0.00 55 1011.9
20260509215607 66 328 3.5 4.3 0.00 0.00 0.00 55 1011.9
20260509215106 66 270 5.2 7.0 0.00 0.00 0.00 55 1011.9
20260509214606 66 307 6.1 8.7 0.00 0.00 0.00 56 1011.8
20260509214107 66 280 5.2 7.0 0.00 0.00 0.00 55 1011.9
20260509213607 66 307 5.2 7.0 0.00 0.00 0.00 56 1011.8
20260509213106 66 324 4.3 7.8 0.00 0.00 0.00 56 1011.9
20260509212606 67 282 3.5 7.0 0.00 0.00 0.00 56 1011.8
20260509212107 67 349 4.3 6.1 0.00 0.00 0.00 55 1011.7
20260509211606 66 290 2.6 4.3 0.00 0.00 0.00 57 1011.8
20260509211106 66 278 1.7 3.5 0.00 0.00 0.00 56 1011.7
20260509210607 67 335 3.5 5.2 0.00 0.00 0.00 55 1011.6
20260509210107 67 321 2.6 4.3 0.00 0.00 0.00 54 1011.5
20260509205606 66 237 5.2 8.7 0.00 0.00 0.00 55 1011.6
20260509205107 66 299 4.3 7.0 0.00 0.00 0.00 55 1011.7
20260509204606 66 324 2.6 5.2 0.00 0.00 0.00 56 1011.6
20260509204108 66 280 2.6 7.0 0.00 0.00 0.00 55 1011.6
20260509203607 66 301 2.6 3.5 0.00 0.00 0.00 55 1011.6
20260509203107 65 320 4.3 6.1 0.00 0.00 0.00 54 1011.6
20260509202606 65 300 3.5 4.3 0.00 0.00 0.00 56 1011.6
20260509202107 65 306 4.3 7.0 0.00 0.00 0.00 54 1011.5
20260509201607 65 288 3.5 7.0 0.00 0.00 0.00 56 1011.5
20260509201106 65 278 4.3 7.8 0.00 0.00 0.00 56 1011.3
20260509200606 65 244 3.5 8.7 0.00 0.00 0.00 56 1011.3
20260509200106 65 300 4.3 5.2 0.00 0.00 0.00 56 1011.2
20260509195606 65 231 2.6 5.2 0.00 0.00 0.00 56 1011.4
20260509195106 65 259 4.3 7.0 0.00 0.00 0.00 55 1011.3
20260509194607 65 245 3.5 5.2 0.00 0.00 0.00 55 1011.3
20260509194106 65 283 5.2 7.0 0.00 0.00 0.00 55 1011.3
20260509193606 65 295 4.3 7.0 0.00 0.00 0.00 54 1011.3
20260509193107 65 326 3.5 6.1 0.00 0.00 0.00 56 1011.3
20260509192606 65 275 3.5 6.1 0.00 0.00 0.00 54 1011.3
20260509192107 65 269 2.6 5.2 0.00 0.00 0.00 55 1011.4
20260509191607 65 262 2.6 3.5 0.00 0.00 0.00 56 1011.4
20260509191106 65 275 2.6 4.3 0.00 0.00 0.00 56 1011.5
20260509190607 65 262 3.5 6.1 0.00 0.00 0.00 53 1011.4
20260509190106 65 284 6.1 7.8 0.00 0.00 0.00 54 1011.4
20260509185606 65 297 5.2 8.7 0.00 0.00 0.00 55 1011.3
20260509185106 65 283 3.5 5.2 0.00 0.00 0.00 55 1011.3
20260509184606 65 279 1.7 3.5 0.00 0.00 0.00 54 1011.4
20260509184107 65 294 2.6 3.5 0.00 0.00 0.00 55 1011.4
20260509183606 65 301 6.1 8.7 0.00 0.00 0.00 53 1011.4
20260509183107 65 291 4.3 10.4 0.00 0.00 0.00 53 1011.5
20260509182607 65 273 4.3 7.8 0.00 0.00 0.00 54 1011.5
20260509182106 65 263 2.6 3.5 0.00 0.00 0.00 57 1011.5
20260509181606 64 270 5.2 7.8 0.00 0.00 0.00 55 1011.5
20260509181106 64 304 4.3 7.0 0.00 0.00 0.00 56 1011.5
20260509180607 64 289 7.0 9.6 0.00 0.00 0.00 56 1011.4
20260509180106 64 302 5.2 8.7 0.00 0.00 0.00 54 1011.5
20260509175606 64 261 5.2 7.0 0.00 0.00 0.00 56 1011.5
20260509175109 64 300 2.6 3.5 0.00 0.00 0.00 57 1011.5